Miscellaneous Local Product
Issued by NWS North Platte, NE

Home | Current Version | Previous Version | Text Only | Print | Product List | Glossary On
Versions: 1 2 3 4 5 6 7 8 9 10 11 12 13 14 15 16 17 18 19 20 21 22 23 24 25 26 27 28 29 30 31 32 33 34 35 36 37 38 39 40 41 42 43 44 45 46 47 48 49 50
000
AXUS43 KLBF 011010
MISLBF


WESTERN AND NORTH CENTRAL NEBRASKA HOURLY WEATHER ROUNDUP
NATIONAL WEATHER SERVICE NORTH PLATTE NE
500 AM CDT SAT AUG 01 2015

***STATIONS NOT REPORTING VARIABLES SUCH AS SKY/WEATHER OR
PRESSURE ARE PROVIDED BY THE NEBRASKA DEPARTMENT OF
ROADS...RAWS...AND APRS NETWORKS...AND ARE NOT UNDER
NATIONAL WEATHER SERVICE QUALITY CONTROL***

...OBSERVATIONS IN AND NEAR THE EASTERN PANHANDLE OF NEBRASKA...

CITY           SKY/WX    TMP DP  RH WIND       PRES   REMARKS
PINE RIDGE     CLEAR     61  52  72 NW3       30.05F
CHADRON        CLEAR     57  53  86 CALM      30.05F
ALLIANCE       CLEAR     59  54  83 S7        30.10F
SIDNEY         CLEAR     65  56  72 SW10      30.17S
BIG SPRINGS      N/A     62  59  89 CALM        N/A
$$

...OBSERVATIONS IN NORTH CENTRAL NEBRASKA...

CITY           SKY/WX    TMP DP  RH WIND       PRES   REMARKS
VALENTINE      CLEAR     67  55  65 E7        30.07F
THEDFORD       CLEAR     62  60  93 CALM      30.10R
AINSWORTH      PTCLDY    61  58  90 E12G17    30.08F
O`NEILL        DRIZZLE   68  65  90 SW8       30.06F
ORD            PTCLDY    64  62  93 E6        30.07F
BROKEN BOW     CLEAR     66  61  84 SE7       30.07F
SPRINGVIEW       N/A     63  61  94 CALM        N/A
CHAMBERS         N/A     68  64  88 W3          N/A
EWING            N/A     63  62  95 CALM        N/A
$$

...OBSERVATIONS IN SOUTHWEST NEBRASKA AND FAR NORTHEAST COLORADO...

CITY           SKY/WX    TMP DP  RH WIND       PRES   REMARKS
WRAY           FAIR      62  58  87 SW7       30.16R
IMPERIAL       CLEAR     65  58  78 SW6       30.12S
OGALLALA       PTCLDY    63  60  92 CALM      30.11F
NORTH PLATTE   CLEAR     72  60  66 S12G20    30.09F
MCCOOK         PTCLDY    76  52  43 SE12      30.11F
LEXINGTON      CLEAR     69  58  68 SW7       30.08S
PAXTON           N/A     65  61  88 CALM        N/A
BRADY            N/A     68  59  74 CALM        N/A
CALLAWAY         N/A     66  63  90 SW10        N/A
$$

...NORTH PLATTE AREA...

CITY           SKY/WX    TMP DP  RH WIND       PRES   REMARKS
AIRPORT        CLEAR     72  60  66 S12G20    30.09F
DOWNTOWN         N/A     73  62  68 S3G12       N/A
SANDRIDGE        N/A     74  62  66 S8G18       N/A
HILLCREST        N/A     72  62  69 SW3         N/A
$$

...SOME WEATHER OBSERVATIONS FROM AROUND THE REGION...

CITY           SKY/WX    TMP DP  RH WIND       PRES   REMARKS
DENVER         PTCLDY    64  52  64 S12       30.20S
LARAMIE        CLEAR     51  44  77 SW5       30.31F
CHEYENNE       CLEAR     57  50  77 W6        30.24F
SCOTTSBLUFF    CLEAR     64  55  72 E8        30.10F
RAPID CITY     PTCLDY    64  56  75 NE8       30.04F
PIERRE         CLEAR     72  61  68 S13       29.96F
WINNER         FAIR      75  60  59 S7        30.02F
SIOUX FALLS    CLEAR     69  65  86 SW6       30.00F
OMAHA          PTCLDY    71  67  87 CALM      30.04S
GRAND ISLAND   CLOUDY    68  62  81 E12       30.11F
KANSAS CITY    CLEAR     71  67  87 S6        30.04F
WICHITA        PTCLDY    72  70  93 S3        30.08F
HAYS           CLEAR     68  61  77 S6        30.11S
LIBERAL        MOCLDY    70  64  83 SE3       30.13F
GOODLAND       CLEAR     67  61  81 SW13      30.17S
$$



USA.gov is the U.S. government's official web portal to all federal, state and local government web resources and services.